Find STARLINK-37293

NORAD ID: 70611 Constellation: starlink operational
LEOCIRCULAR

Live-Position

3D-Globus wird geladen...

Über STARLINK-37293

Beschreibung wird geladen...

Nächste Überflüge

Passes for default location (London). Set your location on the main map for personalized predictions.

Höhenverlauf

Loading altitude history...

Zweizeiliger Elementsatz

1 70611C 26099AD 26122.84145833 .00093412 00000+0 10641-3 0 1221
2 70611 53.1634 22.8081 0005832 284.2335 268.4116 16.08309960 16
Epoch: 2. Mai 2026 • Age: 30 hours